Temp
-11 -11 -12 -12 -12 -12 -12 -12 -12 -12 -12 -12 -11 -12 -12 -12 -12 -12 -12 -12 -12 -12 -12 -12 -12 -12 -12 -12 -12 -12 -12 -12 -12 -12 -12 -12 -12 -12 -12 -12 -12 -12 -11
-11 -12 -12 -12 -12 -12 -12 -12 -12 -12 -12 -12 -12 -12 -12 -12 -12 -12 -12 -12 -12 -12 -12 -12 -12 -13 -13 -13 -13 -13 -12 -12 -12 -12 -12 -12 -13 -12 -12 -12 -12 -12 -12
-12 -12 -12 -12 -12 -13 -12 -12 -12 -12 -12 -12 -12 -12 -13 -13 -12 -13 -13 -13 -13 -13 -13 -13 -13 -13 -13 -13 -13 -13 -13 -13 -13 -13 -13 -13 -13 -13 -13 -13 -13 -12 -12
-12 -12 -12 -13 -13 -13 -12 -12 -12 -12 -12 -12 -13 -13 -13 -13 -13 -13 -13 -13 -13 -13 -13 -13 -13 -13 -13 -13 -13 -13 -13 -13 -13 -13 -13 -13 -13 -13 -13 -13 -13 -13 -13
-12 -12 -13 -13 -13 -13 -13 -13 -12 -12 -12 -13 -13 -13 -13 -13 -13 -13 -13 -13 -14 -14 -13 -13 -13 -13 -14 -14 -13 -13 -13 -13 -13 -13 -13 -13 -13 -13 -13 -13 -13 -13 -13
-12 -13 -13 -13 -13 -13 -13 -13 -13 -13 -12 -13 -13 -13 -13 -13 -13 -13 -14 -14 -14 -14 -15 -14 -14 -14 -14 -14 -14 -14 -14 -14 -14 -14 -13 -13 -13 -13 -13 -14 -14 -14 -13
-13 -13 -13 -13 -13 -13 -13 -13 -13 -13 -13 -13 -13 -13 -13 -13 -13 -13 -14 -14 -14 -14 -14 -14 -14 -14 -14 -13 -13 -14 -14 -14 -14 -15 -14 -14 -14 -14 -13 -13 -14 -14 -14
-13 -13 -13 -13 -13 -14 -14 -13 -13 -13 -13 -13 -13 -13 -12 -13 -13 -13 -15 -15 -15 -15 -15 -15 -15 -14 -14 -14 -15 -16 -18 -20 -20 -21 -21 -20 -19 -17 -16 -14 -14 -14 -14
-13 -13 -14 -14 -14 -14 -14 -14 -14 -13 -13 -14 -13 -13 -13 -12 -12 -13 -14 -15 -15 -15 -15 -15 -14 -14 -16 -19 -20 -21 -22 -22 -23 -23 -23 -24 -24 -23 -22 -20 -17 -15 -14
-13 -14 -14 -14 -14 -14 -14 -14 -14 -14 -14 -14 -14 -14 -14 -14 -13 -13 -14 -15 -16 -16 -15 -15 -16 -18 -20 -22 -22 -23 -24 -24 -24 -25 -26 -26 -27 -26 -25 -24 -22 -20 -17
-14 -14 -14 -14 -14 -14 -15 -15 -14 -14 -14 -14 -14 -15 -15 -15 -16 -16 -15 -16 -16 -16 -16 -17 -19 -21 -22 -23 -24 -25 -26 -26 -27 -27 -28 -28 -28 -27 -26 -25 -24 -23 -22
-14 -14 -14 -14 -14 -15 -15 -15 -15 -15 -15 -15 -15 -15 -16 -16 -17 -17 -17 -16 -16 -17 -20 -20 -22 -22 -24 -25 -26 -27 -27 -28 -29 -29 -29 -28 -28 -28 -27 -26 -25 -24 -23
-14 -14 -14 -14 -15 -15 -15 -15 -15 -15 -15 -16 -16 -16 -17 -17 -17 -17 -17 -16 -16 -21 -23 -23 -23 -24 -25 -26 -27 -27 -28 -28 -28 -28 -28 -28 -28 -27 -27 -27 -26 -24 -23
-14 -15 -15 -15 -15 -15 -15 -16 -16 -16 -16 -16 -17 -18 -18 -18 -18 -17 -17 -17 -18 -23 -24 -24 -25 -25 -26 -27 -27 -28 -28 -28 -28 -28 -28 -28 -27 -27 -27 -27 -26 -25 -24
-15 -15 -15 -15 -16 -16 -16 -16 -16 -16 -17 -17 -18 -18 -18 -18 -18 -17 -17 -20 -23 -24 -26 -25 -26 -26 -27 -28 -28 -28 -28 -28 -28 -27 -27 -27 -27 -27 -27 -26 -25 -25 -24
-16 -16 -16 -16 -16 -16 -16 -17 -17 -17 -17 -18 -18 -18 -18 -18 -18 -18 -20 -23 -25 -25 -26 -26 -27 -27 -28 -28 -27 -27 -27 -27 -27 -27 -27 -27 -27 -27 -26 -26 -26 -25 -24
-16 -16 -16 -16 -16 -17 -17 -17 -17 -18 -18 -18 -18 -19 -19 -18 -18 -18 -22 -25 -25 -26 -27 -28 -28 -28 -27 -27 -27 -27 -27 -27 -26 -27 -27 -27 -26 -26 -26 -26 -26 -25 -24
-16 -17 -17 -17 -17 -17 -17 -17 -18 -18 -18 -19 -19 -19 -19 -18 -18 -20 -24 -26 -26 -27 -27 -28 -28 -27 -27 -27 -27 -27 -26 -26 -26 -26 -26 -25 -25 -26 -26 -25 -25 -24 -23
-17 -17 -17 -17 -17 -18 -18 -18 -18 -19 -19 -19 -19 -19 -19 -18 -19 -21 -25 -26 -27 -27 -27 -27 -27 -27 -27 -27 -27 -27 -27 -26 -26 -25 -25 -25 -25 -25 -25 -25 -25 -23 -23
-17 -18 -18 -18 -18 -18 -18 -18 -19 -19 -19 -19 -19 -19 -19 -19 -20 -23 -26 -27 -27 -27 -27 -27 -27 -27 -27 -27 -27 -26 -25 -25 -25 -25 -24 -24 -24 -24 -24 -25 -24 -23 -22
-18 -18 -18 -18 -18 -18 -19 -19 -19 -19 -19 -20 -20 -19 -19 -19 -21 -25 -26 -26 -27 -27 -27 -27 -27 -26 -27 -27 -26 -25 -25 -25 -25 -25 -24 -23 -23 -24 -24 -24 -23 -22 -22
-19 -19 -19 -19 -19 -19 -19 -19 -19 -20 -20 -20 -20 -19 -19 -20 -22 -26 -27 -27 -27 -27 -27 -27 -27 -27 -27 -27 -25 -24 -25 -25 -25 -24 -24 -23 -23 -23 -23 -24 -23 -22 -21
-19 -19 -19 -19 -19 -19 -19 -20 -20 -20 -20 -20 -20 -20 -19 -21 -23 -25 -27 -27 -27 -27 -27 -27 -27 -27 -27 -25 -24 -24 -24 -24 -24 -24 -23 -22 -22 -23 -23 -23 -22 -22 -20
-19 -20 -19 -19 -19 -19 -20 -20 -20 -20 -20 -20 -20 -20 -20 -21 -24 -26 -26 -27 -27 -27 -27 -27 -27 -27 -27 -25 -24 -24 -25 -24 -24 -23 -22 -22 -22 -22 -22 -22 -21 -21 -20
-20 -20 -20 -20 -20 -20 -20 -20 -20 -20 -21 -21 -20 -20 -20 -22 -24 -26 -26 -26 -27 -27 -27 -27 -27 -27 -26 -24 -24 -24 -24 -24 -23 -23 -22 -22 -21 -21 -21 -21 -20 -20 -20
-20 -20 -20 -20 -20 -20 -21 -21 -21 -21 -21 -21 -20 -20 -22 -24 -25 -26 -26 -26 -26 -27 -27 -27 -27 -27 -26 -25 -24 -24 -24 -23 -23 -23 -22 -22 -21 -20 -20 -21 -20 -20 -20
Height
5783 5782 5780 5778 5775 5772 5768 5764 5761 5758 5755 5751 5748 5745 5743 5741 5739 5738 5736 5733 5731 5729 5727 5725 5723 5722 5721 5719 5719 5718 5719 5720 5721 5722 5723 5725 5728 5731 5736 5741 5747 5752 5758
5777 5775 5773 5770 5767 5763 5760 5756 5753 5749 5746 5743 5739 5736 5733 5730 5727 5724 5722 5721 5717 5714 5711 5708 5706 5704 5702 5700 5699 5698 5697 5698 5699 5701 5703 5705 5708 5713 5716 5721 5728 5736 5743
5769 5767 5764 5761 5758 5755 5751 5748 5744 5740 5737 5733 5729 5726 5723 5719 5715 5711 5708 5704 5701 5697 5693 5689 5686 5682 5680 5677 5674 5672 5671 5672 5673 5675 5678 5682 5686 5691 5696 5702 5708 5716 5724
5761 5758 5756 5753 5749 5746 5741 5737 5734 5730 5726 5722 5718 5714 5710 5706 5701 5698 5693 5688 5684 5679 5674 5668 5663 5657 5652 5649 5646 5644 5643 5642 5643 5645 5648 5652 5658 5665 5672 5679 5688 5696 5705
5753 5750 5747 5744 5740 5736 5732 5727 5723 5718 5714 5711 5707 5703 5699 5694 5689 5684 5677 5671 5665 5658 5651 5645 5638 5631 5625 5621 5616 5612 5609 5606 5607 5608 5611 5616 5624 5633 5642 5651 5660 5672 5681
5744 5741 5738 5734 5730 5726 5721 5717 5712 5705 5700 5697 5694 5691 5685 5679 5674 5668 5660 5652 5645 5635 5626 5618 5611 5604 5595 5587 5579 5573 5569 5565 5563 5563 5566 5572 5581 5592 5605 5618 5631 5643 5656
5735 5732 5728 5724 5719 5714 5710 5705 5700 5695 5688 5683 5679 5676 5670 5663 5657 5650 5641 5631 5621 5611 5597 5585 5575 5565 5557 5544 5532 5522 5515 5510 5507 5507 5511 5520 5528 5543 5561 5575 5593 5610 5627
5725 5721 5718 5713 5709 5703 5698 5692 5687 5682 5676 5669 5663 5658 5653 5650 5641 5631 5622 5610 5597 5585 5569 5551 5537 5521 5508 5496 5482 5470 5459 5454 5453 5454 5458 5465 5475 5492 5509 5527 5548 5569 5590
5715 5712 5708 5703 5698 5692 5686 5680 5674 5669 5663 5655 5647 5639 5632 5627 5620 5611 5601 5586 5570 5555 5532 5515 5494 5474 5454 5440 5432 5425 5421 5419 5419 5421 5427 5434 5444 5454 5465 5480 5502 5524 5548
5705 5701 5697 5692 5687 5681 5674 5668 5662 5655 5648 5640 5633 5622 5612 5601 5594 5592 5582 5564 5547 5532 5503 5480 5453 5433 5416 5408 5399 5389 5385 5384 5387 5393 5399 5408 5418 5427 5437 5449 5464 5482 5505
5695 5691 5686 5681 5675 5669 5663 5656 5649 5641 5633 5624 5615 5607 5597 5584 5571 5562 5561 5551 5531 5501 5472 5440 5423 5406 5394 5383 5372 5365 5361 5361 5365 5371 5382 5393 5402 5410 5418 5429 5443 5460 5475
5684 5680 5675 5669 5663 5657 5651 5644 5636 5628 5619 5609 5600 5590 5578 5566 5553 5539 5528 5517 5501 5478 5445 5422 5401 5389 5375 5365 5358 5353 5351 5352 5357 5365 5374 5382 5390 5397 5404 5411 5424 5444 5456
5673 5668 5663 5658 5651 5646 5639 5631 5623 5614 5605 5596 5586 5575 5563 5549 5534 5518 5501 5488 5467 5444 5417 5402 5391 5377 5367 5360 5355 5352 5351 5353 5357 5363 5368 5374 5379 5383 5389 5396 5407 5416 5429
5662 5657 5652 5646 5640 5634 5627 5619 5611 5601 5592 5582 5571 5560 5548 5533 5517 5498 5478 5456 5446 5425 5400 5393 5380 5373 5365 5359 5355 5353 5353 5354 5356 5359 5362 5366 5369 5374 5378 5384 5392 5403 5416
5651 5645 5640 5635 5629 5623 5615 5606 5598 5589 5579 5568 5558 5546 5533 5518 5500 5481 5459 5435 5417 5412 5393 5385 5378 5370 5364 5360 5356 5355 5353 5353 5353 5355 5357 5360 5362 5364 5368 5373 5380 5391 5404
5639 5634 5629 5623 5617 5611 5603 5594 5586 5576 5566 5555 5545 5533 5518 5503 5484 5465 5444 5425 5409 5399 5390 5381 5374 5369 5363 5360 5356 5354 5352 5351 5350 5351 5351 5351 5352 5354 5358 5363 5372 5383 5394
5627 5622 5617 5612 5605 5598 5590 5582 5574 5564 5555 5543 5532 5519 5504 5489 5470 5450 5431 5415 5404 5393 5387 5377 5373 5368 5363 5359 5355 5352 5349 5347 5346 5345 5344 5343 5344 5346 5350 5355 5364 5376 5389
5615 5611 5606 5600 5594 5587 5579 5570 5561 5552 5542 5531 5520 5506 5492 5477 5457 5438 5421 5408 5397 5387 5382 5378 5370 5366 5361 5356 5352 5349 5345 5342 5340 5340 5339 5340 5341 5342 5346 5351 5357 5369 5386
5603 5599 5594 5588 5582 5575 5567 5558 5550 5541 5529 5519 5507 5494 5479 5464 5446 5428 5412 5402 5390 5382 5377 5374 5369 5363 5358 5353 5348 5342 5339 5338 5338 5339 5339 5338 5337 5337 5340 5344 5352 5366 5382
5591 5586 5582 5577 5570 5563 5556 5547 5539 5529 5518 5506 5494 5481 5467 5452 5435 5419 5406 5396 5386 5378 5373 5369 5365 5360 5355 5348 5343 5339 5338 5339 5339 5338 5336 5334 5333 5334 5336 5341 5350 5362 5378
5579 5574 5570 5565 5559 5552 5544 5536 5528 5518 5508 5497 5484 5471 5455 5440 5424 5410 5400 5391 5381 5373 5368 5365 5361 5357 5352 5344 5340 5338 5339 5339 5339 5337 5336 5334 5333 5334 5337 5341 5350 5361 5376
5567 5563 5559 5553 5547 5541 5533 5525 5517 5507 5496 5486 5475 5460 5444 5429 5415 5402 5392 5383 5375 5367 5364 5361 5358 5354 5347 5342 5339 5339 5339 5340 5339 5334 5334 5333 5330 5331 5333 5338 5347 5363 5377
5555 5552 5547 5541 5535 5529 5522 5514 5505 5495 5485 5475 5464 5451 5437 5418 5405 5396 5388 5378 5370 5362 5359 5357 5355 5351 5347 5341 5340 5339 5339 5339 5338 5336 5333 5331 5330 5330 5331 5336 5346 5359 5376
5544 5540 5535 5530 5524 5518 5511 5503 5494 5485 5474 5463 5452 5439 5426 5411 5396 5387 5382 5374 5366 5358 5354 5353 5352 5349 5343 5340 5340 5339 5340 5340 5338 5334 5332 5331 5328 5326 5331 5336 5346 5361 5378
5532 5528 5523 5518 5512 5507 5500 5491 5484 5476 5465 5454 5440 5426 5413 5400 5389 5381 5376 5369 5361 5354 5350 5348 5349 5347 5341 5338 5338 5339 5341 5340 5337 5335 5334 5330 5325 5323 5325 5333 5349 5367 5382
5520 5516 5512 5507 5502 5495 5488 5481 5474 5467 5458 5447 5432 5415 5400 5389 5380 5373 5369 5363 5357 5351 5346 5344 5345 5344 5340 5337 5338 5339 5340 5340 5337 5336 5333 5328 5323 5322 5325 5331 5346 5366 5381
Wind_Speed
31 32 33 34 37 38 41 42 42 42 43 44 44 45 46 47 49 51 54 57 60 62 64 67 68 70 71 72 73 73 74 75 76 75 75 74 73 71 68 65 62 57 53
32 34 35 37 39 41 43 43 44 45 46 47 47 48 48 49 52 55 57 60 63 66 69 72 74 77 78 80 82 83 84 84 84 84 83 83 81 79 78 73 70 66 61
34 36 37 40 41 44 45 47 47 47 47 47 49 50 51 53 56 59 61 64 67 70 74 76 80 82 85 88 90 92 93 93 94 94 94 91 90 87 85 83 79 75 71
37 38 39 42 44 47 49 50 50 50 50 49 50 51 52 55 58 61 64 67 71 75 78 82 85 89 91 94 96 98 99 100 100 101 101 100 99 97 93 90 88 83 79
39 40 42 45 47 50 51 50 50 51 51 50 50 51 53 57 60 63 67 70 74 77 81 84 89 92 95 98 100 103 105 107 107 108 108 109 107 105 103 100 97 94 88
41 42 45 47 51 53 53 51 52 53 52 50 51 53 57 61 62 66 69 73 76 79 84 89 93 96 100 104 108 111 114 118 120 122 122 122 120 118 114 109 105 101 97
43 45 48 51 53 54 53 52 53 53 53 54 56 57 61 64 67 70 72 75 81 86 92 96 98 102 106 114 122 127 132 135 136 135 135 136 136 134 130 126 118 112 106
45 48 51 53 54 53 54 55 53 53 56 59 60 62 64 66 69 72 75 79 84 90 94 102 108 115 123 131 132 122 110 102 99 98 98 102 110 120 127 132 133 126 117
47 50 52 54 54 54 55 53 54 56 58 62 65 68 70 72 74 78 81 85 90 94 103 111 121 131 126 107 94 87 84 81 81 82 81 80 80 84 92 102 115 126 125
48 51 54 54 55 56 55 55 57 58 60 63 67 70 73 78 82 84 85 88 92 99 112 120 127 110 96 85 80 74 67 64 64 64 69 69 67 70 75 79 87 98 116
50 54 54 55 56 56 57 58 60 61 64 67 70 72 75 78 83 86 86 87 94 106 115 116 99 88 79 67 58 49 46 44 44 49 54 57 59 60 62 60 61 72 72
52 54 54 56 56 57 59 60 61 62 65 69 71 73 76 80 85 88 91 95 101 101 94 87 79 66 54 46 36 29 25 24 28 35 42 48 52 53 57 56 62 63 69
54 55 55 57 58 59 59 60 62 64 66 68 70 73 77 82 86 91 97 102 107 87 76 70 54 46 37 26 18 12 10 14 22 30 37 43 46 50 55 57 65 71 63
55 57 57 58 59 59 60 61 62 65 66 68 71 75 79 83 87 93 101 106 100 70 64 54 46 36 28 18 13 11 12 16 23 30 36 38 42 46 49 53 65 81 70
58 58 57 58 60 60 60 61 63 64 66 69 72 76 80 81 89 95 100 96 82 61 52 47 37 30 21 16 16 16 19 22 25 28 31 35 39 42 46 51 67 71 62
60 58 58 59 60 60 61 61 62 64 65 70 73 76 78 82 89 95 95 80 67 53 40 41 32 23 21 19 22 22 22 23 26 29 31 33 37 40 42 46 62 65 66
58 59 59 60 60 61 60 60 61 63 66 69 73 75 78 83 89 93 82 67 56 46 35 30 27 24 25 23 24 23 24 24 25 28 30 31 33 37 38 45 54 63 72
59 60 60 60 61 61 60 60 61 63 66 69 72 74 77 82 89 87 70 58 51 40 31 20 27 27 26 23 23 27 29 26 18 17 17 21 27 25 27 44 55 52 71
59 60 59 60 61 59 58 59 61 62 66 69 71 73 77 82 85 80 60 52 48 37 28 20 24 28 26 27 28 29 19 12 10 15 19 22 26 30 32 36 49 60 68
59 58 58 60 59 58 58 59 60 62 65 68 70 73 79 84 82 69 52 49 44 35 26 23 25 26 28 30 28 16 10 10 13 11 14 14 17 20 29 35 42 70 66
56 56 57 59 58 56 56 58 59 61 64 66 69 74 80 82 78 58 45 45 42 32 25 23 24 26 29 30 13 11 15 17 19 15 17 13 17 19 25 34 43 67 68
53 55 57 57 54 54 56 57 59 61 63 66 67 74 78 80 71 48 42 45 44 31 23 22 23 24 29 20 8 15 20 14 9 19 19 23 13 19 24 34 51 73 73
53 54 54 53 52 54 56 57 58 59 62 65 67 74 77 76 66 44 38 43 42 32 22 21 20 23 24 11 15 21 22 18 16 19 17 11 20 25 24 36 57 72 81
51 52 51 50 52 54 55 56 57 59 63 64 69 75 78 74 60 39 33 38 38 34 24 22 20 19 23 11 19 25 20 13 11 12 12 7 13 28 28 41 64 74 82
51 51 49 50 52 53 54 55 56 58 60 63 70 76 77 70 54 34 31 33 35 34 24 23 20 17 20 15 22 26 17 12 9 10 13 12 9 18 19 40 72 67 61
50 48 48 49 50 52 53 53 56 57 59 61 70 73 74 61 47 30 30 30 32 33 24 23 21 17 19 16 21 23 16 9 5 6 11 19 5 15 21 40 67 66 56
Wind_Direction
290 292 294 299 304 306 307 306 304 301 298 297 294 290 286 283 280 277 275 275 274 274 272 271 270 270 269 268 266 265 263 260 259 261 262 262 263 264 261 258 255 251 250
291 292 295 301 302 303 304 304 303 301 298 295 292 289 285 283 281 279 278 277 276 275 274 273 272 270 269 268 267 265 263 261 260 259 259 260 261 259 260 258 255 252 248
290 291 294 297 300 303 305 304 302 299 295 292 289 287 284 283 281 280 280 278 276 275 274 273 271 270 268 267 265 264 263 261 260 259 258 255 254 255 254 254 254 253 250
289 290 293 298 301 305 305 302 300 298 296 293 290 288 287 286 284 284 282 281 279 278 276 275 274 273 271 270 268 267 265 264 262 261 259 258 256 253 252 252 251 250 249
290 292 295 299 303 305 302 302 300 300 297 294 291 289 287 286 286 285 284 283 282 281 279 278 277 277 277 276 274 272 270 267 265 263 261 258 255 254 252 250 249 247 246
290 292 297 300 303 304 304 304 303 301 299 296 294 291 290 290 289 289 290 289 289 287 286 284 283 282 281 280 278 275 273 271 269 267 264 262 258 254 252 251 247 245 244
293 295 299 301 304 304 304 305 304 302 300 299 297 296 295 294 293 293 293 292 290 290 291 291 291 289 286 285 284 282 278 275 273 269 266 263 259 256 252 250 248 245 242
294 298 300 301 303 304 306 306 304 303 301 300 298 296 294 294 293 293 295 298 297 297 298 296 296 294 292 289 288 283 277 273 269 265 262 259 256 255 252 250 247 245 241
295 297 301 302 303 304 305 305 304 303 301 300 299 300 301 300 298 299 301 303 303 303 302 301 300 299 298 292 288 284 278 271 264 259 256 253 251 249 246 243 240 240 239
295 299 303 303 304 305 306 305 305 304 302 303 304 305 305 304 302 301 304 306 307 308 305 306 304 302 296 295 292 286 278 269 261 254 247 243 242 242 241 238 235 234 231
296 300 303 303 304 305 305 306 306 306 306 306 307 307 307 307 308 309 308 308 311 312 312 309 304 300 301 299 294 286 277 267 255 243 236 236 237 238 237 235 231 228 229
297 300 301 302 303 304 306 306 306 306 307 307 308 308 309 310 311 311 311 314 316 317 313 307 306 309 304 305 302 292 276 259 241 230 229 234 236 237 237 230 221 213 230
299 300 300 301 303 304 306 307 306 307 308 308 309 311 312 312 313 314 317 319 322 322 311 311 314 315 315 316 310 295 261 234 230 230 233 237 237 233 231 230 219 214 217
299 299 299 301 303 305 306 306 307 308 309 310 312 313 314 315 316 319 322 323 325 324 312 319 318 319 317 316 301 284 263 246 243 241 241 241 239 239 235 229 221 215 219
298 298 298 299 302 305 306 306 308 309 311 312 313 315 316 319 321 325 325 325 326 324 316 321 318 320 318 314 304 294 279 264 252 248 246 247 246 244 239 230 218 218 219
295 295 296 298 302 305 306 306 309 310 312 313 315 317 318 322 326 327 327 325 324 323 319 318 316 321 320 313 299 290 283 268 257 254 258 258 248 242 234 227 216 213 210
293 293 296 298 302 305 305 307 309 312 314 315 317 318 321 327 328 329 326 324 324 322 319 307 315 314 309 308 297 289 282 274 269 268 268 258 250 243 231 224 219 212 204
291 293 295 297 302 304 305 308 311 314 315 316 318 320 326 330 330 328 324 325 324 320 316 299 307 309 308 306 301 295 287 281 269 265 261 252 237 241 234 222 217 210 190
289 291 293 297 302 303 306 310 313 315 316 317 319 322 329 331 330 327 323 326 324 318 310 298 300 307 311 309 302 294 281 251 243 223 260 259 252 249 236 220 204 199 193
286 290 293 298 302 304 308 311 315 316 317 319 321 327 332 332 329 325 324 324 322 313 302 297 304 312 311 307 301 277 237 212 228 286 324 284 242 233 219 201 194 195 191
286 290 294 300 301 305 309 312 315 317 318 320 323 330 333 332 328 323 319 327 327 310 295 292 306 312 315 310 293 234 223 221 251 295 317 281 261 250 216 204 198 192 189
286 291 297 300 303 307 310 314 316 317 319 320 325 332 333 331 327 319 318 323 331 312 288 286 303 312 315 310 280 220 225 222 257 309 284 306 277 241 226 207 188 190 186
289 294 298 301 305 309 312 314 317 318 320 321 327 332 333 330 325 317 312 321 327 316 292 275 294 313 318 299 228 227 224 248 294 313 320 289 253 253 220 207 193 190 186
293 296 300 302 307 309 312 315 318 319 320 324 330 333 333 329 323 312 311 319 320 320 297 270 284 308 317 288 225 226 240 274 294 315 350 2 251 237 236 203 196 191 187
295 297 300 304 306 308 312 316 318 319 321 327 332 334 331 328 321 306 308 318 319 321 298 263 273 300 310 265 238 228 256 281 293 325 343 337 282 251 222 193 191 188 189
295 297 300 303 305 309 314 316 317 319 323 329 335 333 329 324 316 303 306 317 318 319 299 267 262 286 306 278 248 245 258 281 298 304 322 6 360 217 201 187 181 185 184